KK7KHO Weather Reports


time (UTC)temp
C
wind
direction
speed
KPH
gust
KPH
rain 1hr
cm
rain 24hr
cm
rain mn
cm
humidity
%
barometer
mb
20260503194431 23 329 3.2 9.7 0.00 0.00 0.00 57 1012.3
20260503193926 22 305 6.4 11.3 0.00 0.00 0.00 56 1012.3
20260503193422 22 339 3.2 9.7 0.00 0.00 0.00 57 1012.4
20260503192918 22 262 6.4 9.7 0.00 0.00 0.00 56 1012.6
20260503192415 22 14 3.2 12.9 0.00 0.00 0.00 58 1012.6
20260503191911 22 307 6.4 11.3 0.00 0.00 0.00 57 1012.6
20260503191408 22 283 3.2 4.8 0.00 0.00 0.00 57 1012.7
20260503190904 22 112 4.8 9.7 0.00 0.00 0.00 58 1012.7
20260503190402 22 311 4.8 11.3 0.00 0.00 0.00 56 1012.6
20260503185858 22 258 4.8 11.3 0.00 0.00 0.00 57 1012.8
20260503185355 22 330 4.8 9.7 0.00 0.00 0.00 55 1012.7
20260503184854 21 245 6.4 12.9 0.00 0.00 0.00 56 1012.9
20260503184351 22 330 6.4 11.3 0.00 0.00 0.00 57 1012.9
20260503183847 21 343 6.4 12.9 0.00 0.00 0.00 60 1013.0
20260503183344 21 331 6.4 11.3 0.00 0.00 0.00 60 1012.9
20260503182841 21 356 3.2 6.4 0.00 0.00 0.00 61 1013.2
20260503182340 20 26 3.2 9.7 0.00 0.00 0.00 62 1013.3
20260503181837 20 274 6.4 9.7 0.00 0.00 0.00 64 1013.2
20260503181334 18 240 4.8 9.7 0.00 0.00 0.00 67 1013.4
20260503180830 20 320 4.8 4.8 0.00 0.00 0.00 64 1013.5
20260503180329 19 7 1.6 4.8 0.00 0.00 0.00 68 1013.5
20260503175824 18 283 4.8 9.7 0.00 0.00 0.00 67 1013.5
20260503175323 19 263 3.2 9.7 0.00 0.00 0.00 67 1013.6
20260503174818 20 339 4.8 11.3 0.00 0.00 0.00 65 1013.6
20260503174317 20 26 6.4 9.7 0.00 0.00 0.00 63 1013.7
20260503173817 19 4 3.2 4.8 0.00 0.00 0.00 66 1013.8
20260503173313 18 263 3.2 6.4 0.00 0.00 0.00 66 1013.8
20260503172810 18 319 1.6 4.8 0.00 0.00 0.00 67 1013.7
20260503172308 18 11 1.6 11.3 0.00 0.00 0.00 67 1013.9
20260503171803 18 350 6.4 9.7 0.00 0.00 0.00 68 1013.7
20260503171300 18 310 3.2 12.9 0.00 0.00 0.00 69 1013.7
20260503170758 18 258 6.4 12.9 0.00 0.00 0.00 66 1013.9
20260503170254 19 323 8.0 11.3 0.00 0.00 0.00 66 1013.8
20260503160217 18 17 0.0 1.6 0.00 0.00 0.00 77 1014.1
20260503150647 15 342 4.8 6.4 0.00 0.00 0.00 86 1014.3
20260503150143 15 5 3.2 9.7 0.00 0.00 0.00 85 1014.2
20260503140107 11 353 0.0 0.0 0.00 0.00 0.00 94 1014.1
20260503131036 9 38 0.0 0.0 0.00 0.00 0.00 96 1013.6
20260503130533 9 38 1.6 1.6 0.00 0.00 0.00 96 1013.7
20260503110424 10 41 0.0 0.0 0.00 0.00 0.00 91 1013.8
20260503090304 11 41 0.0 1.6 0.00 0.00 0.00 89 1013.9
20260503081237 12 35 0.0 0.0 0.00 0.00 0.00 85 1014.1
20260503080732 12 34 0.0 0.0 0.00 0.00 0.00 84 1014.0
20260503080229 12 34 0.0 0.0 0.00 0.00 0.00 83 1014.0
20260503072706 13 31 0.0 1.6 0.00 0.00 0.00 81 1014.0
20260503072203 12 40 1.6 3.2 0.00 0.00 0.00 81 1014.0
20260503071700 12 36 0.0 0.0 0.00 0.00 0.00 82 1013.9
20260503071156 12 34 0.0 0.0 0.00 0.00 0.00 82 1013.8
20260503070653 13 34 0.0 1.6 0.00 0.00 0.00 81 1013.7
20260503070152 13 34 1.6 1.6 0.00 0.00 0.00 81 1013.6
20260503060116 14 48 1.6 3.2 0.00 0.00 0.00 77 1013.8
20260503055107 14 34 1.6 1.6 0.00 0.00 0.00 78 1013.7
20260503054603 14 31 0.0 1.6 0.00 0.00 0.00 78 1013.6
20260503054100 14 33 0.0 0.0 0.00 0.00 0.00 78 1013.6
20260503053558 14 18 0.0 0.0 0.00 0.00 0.00 76 1013.5
20260503053056 14 18 0.0 0.0 0.00 0.00 0.00 78 1013.6
20260503052552 15 18 0.0 0.0 0.00 0.00 0.00 77 1013.5
20260503052048 15 18 0.0 0.0 0.00 0.00 0.00 77 1013.6
20260503051544 15 4 0.0 1.6 0.00 0.00 0.00 76 1013.3
20260503051042 15 14 0.0 0.0 0.00 0.00 0.00 75 1013.3
20260503050537 15 14 0.0 0.0 0.00 0.00 0.00 75 1013.3
20260503050035 15 13 0.0 0.0 0.00 0.00 0.00 73 1013.4
20260503045532 15 14 0.0 0.0 0.00 0.00 0.00 72 1013.3
20260503045030 16 20 0.0 1.6 0.00 0.00 0.00 70 1013.4
20260503044526 16 6 0.0 0.0 0.00 0.00 0.00 71 1013.3
20260503044024 16 5 0.0 1.6 0.00 0.00 0.00 70 1013.2
20260503043519 16 27 0.0 0.0 0.00 0.00 0.00 71 1013.2
20260503043016 16 4 0.0 0.0 0.00 0.00 0.00 71 1013.0
20260503042513 16 34 0.0 3.2 0.00 0.00 0.00 70 1013.0
20260503042009 16 13 0.0 1.6 0.00 0.00 0.00 70 1013.2
20260503041507 16 323 0.0 1.6 0.00 0.00 0.00 70 1013.0
20260503041005 16 6 1.6 1.6 0.00 0.00 0.00 69 1013.1
20260503040502 16 289 3.2 4.8 0.00 0.00 0.00 68 1013.0
20260503035959 16 0 0.0 3.2 0.00 0.00 0.00 70 1013.0
20260503035455 16 356 0.0 1.6 0.00 0.00 0.00 72 1012.8
20260503034953 16 1 0.0 1.6 0.00 0.00 0.00 75 1012.8
20260503034450 16 344 0.0 1.6 0.00 0.00 0.00 74 1012.7
20260503033947 16 338 1.6 3.2 0.00 0.00 0.00 74 1012.7
20260503033444 16 4 0.0 4.8 0.00 0.00 0.00 74 1012.5
20260503032942 16 307 3.2 4.8 0.00 0.00 0.00 74 1012.6
20260503032441 17 253 3.2 4.8 0.00 0.00 0.00 74 1012.4
20260503031938 17 352 0.0 1.6 0.00 0.00 0.00 73 1012.5
20260503031435 17 335 1.6 3.2 0.00 0.00 0.00 72 1012.3
20260503030932 17 247 1.6 4.8 0.00 0.00 0.00 71 1012.4
20260503030428 17 282 1.6 4.8 0.00 0.00 0.00 70 1012.4
20260503025925 17 7 1.6 6.4 0.00 0.00 0.00 68 1012.3
20260503025422 18 10 6.4 11.3 0.00 0.00 0.00 67 1012.2
20260503024920 18 296 1.6 3.2 0.00 0.00 0.00 68 1012.3
20260503024416 18 272 3.2 4.8 0.00 0.00 0.00 69 1012.2
20260503023914 19 245 1.6 3.2 0.00 0.00 0.00 66 1012.2
20260503023410 19 296 1.6 4.8 0.00 0.00 0.00 65 1012.2
20260503022908 20 266 4.8 4.8 0.00 0.00 0.00 61 1012.3
20260503022402 20 343 1.6 4.8 0.00 0.00 0.00 62 1012.2
20260503021859 20 1 3.2 4.8 0.00 0.00 0.00 59 1012.0
20260503021355 21 6 3.2 4.8 0.00 0.00 0.00 55 1012.2
20260503020852 21 23 3.2 6.4 0.00 0.00 0.00 55 1012.4
20260503020350 21 347 4.8 6.4 0.00 0.00 0.00 54 1012.4
20260503015846 21 8 1.6 4.8 0.00 0.00 0.00 54 1012.2
20260503015343 21 284 6.4 11.3 0.00 0.00 0.00 54 1012.5
20260503014839 21 309 1.6 14.5 0.00 0.00 0.00 53 1012.3
20260503014337 21 228 1.6 4.8 0.00 0.00 0.00 53 1012.5
20260503013834 21 357 1.6 9.7 0.00 0.00 0.00 53 1012.4
20260503013331 21 300 3.2 9.7 0.00 0.00 0.00 55 1012.5
20260503012828 21 101 3.2 9.7 0.00 0.00 0.00 56 1012.6
20260503012326 21 339 1.6 9.7 0.00 0.00 0.00 55 1012.4
20260503011823 21 99 3.2 11.3 0.00 0.00 0.00 57 1012.5
20260503011320 21 346 4.8 11.3 0.00 0.00 0.00 56 1012.7
20260503010816 22 300 3.2 6.4 0.00 0.00 0.00 55 1012.7
20260503010313 22 331 3.2 9.7 0.00 0.00 0.00 55 1012.6
20260503005810 22 349 1.6 6.4 0.00 0.00 0.00 54 1012.8
20260503005308 22 344 1.6 6.4 0.00 0.00 0.00 55 1012.7
20260503004804 22 279 3.2 11.3 0.00 0.00 0.00 53 1012.6
20260503004301 22 287 3.2 6.4 0.00 0.00 0.00 55 1012.7
20260503003759 22 245 3.2 6.4 0.00 0.00 0.00 55 1012.8
20260503003255 22 315 3.2 9.7 0.00 0.00 0.00 54 1012.6
20260503002752 22 304 8.0 12.9 0.00 0.00 0.00 55 1013.0
20260503002249 22 2 4.8 11.3 0.00 0.00 0.00 55 1012.8
20260503001745 22 298 4.8 12.9 0.00 0.00 0.00 58 1012.9
20260503001242 22 19 0.0 6.4 0.00 0.00 0.00 59 1012.9
20260503000740 22 17 3.2 12.9 0.00 0.00 0.00 58 1013.0
20260503000237 22 13 1.6 6.4 0.00 0.00 0.00 57 1013.1
20260502235733 22 6 1.6 16.1 0.00 0.00 0.00 56 1013.0
20260502235232 22 14 3.2 11.3 0.00 0.00 0.00 55 1013.1
20260502234727 22 298 6.4 9.7 0.00 0.00 0.00 55 1013.2
20260502234225 22 10 4.8 14.5 0.00 0.00 0.00 55 1013.1
20260502233721 23 350 4.8 11.3 0.00 0.00 0.00 54 1013.1
20260502233217 23 292 8.0 12.9 0.00 0.00 0.00 53 1013.4
20260502232713 23 332 1.6 6.4 0.00 0.00 0.00 54 1013.4
20260502232211 22 314 4.8 9.7 0.00 0.00 0.00 53 1013.3
20260502231707 22 263 6.4 12.9 0.00 0.00 0.00 55 1013.4
20260502231205 22 253 4.8 11.3 0.00 0.00 0.00 56 1013.5
20260502230704 23 304 9.7 14.5 0.00 0.00 0.00 54 1013.4
20260502230202 23 14 3.2 9.7 0.00 0.00 0.00 55 1013.7
20260502225657 22 316 6.4 9.7 0.00 0.00 0.00 55 1013.7
20260502225155 22 308 8.0 14.5 0.00 0.00 0.00 57 1013.6
20260502224651 22 326 3.2 6.4 0.00 0.00 0.00 57 1013.5
20260502224147 22 357 6.4 11.3 0.00 0.00 0.00 58 1013.8
20260502223645 22 280 6.4 12.9 0.00 0.00 0.00 60 1013.7
20260502223143 22 358 6.4 11.3 0.00 0.00 0.00 59 1013.9
20260502222641 22 291 3.2 4.8 0.00 0.00 0.00 61 1014.0
20260502222137 22 263 3.2 12.9 0.00 0.00 0.00 62 1013.9
20260502221632 21 354 3.2 9.7 0.00 0.00 0.00 63 1014.1
20260502221129 22 296 9.7 14.5 0.00 0.00 0.00 62 1014.3
20260502220626 22 4 4.8 11.3 0.00 0.00 0.00 64 1014.4
20260502220122 21 321 6.4 16.1 0.00 0.00 0.00 65 1014.4
20260502215619 22 294 6.4 20.9 0.00 0.00 0.00 64 1014.4
20260502215116 22 274 9.7 11.3 0.00 0.00 0.00 64 1014.6
20260502214607 21 357 3.2 16.1 0.00 0.00 0.00 66 1014.7
20260502214105 22 62 1.6 11.3 0.00 0.00 0.00 66 1014.6
20260502213602 21 238 6.4 12.9 0.00 0.00 0.00 67 1014.6
20260502213059 22 285 8.0 14.5 0.00 0.00 0.00 65 1014.6
20260502212558 21 250 1.6 9.7 0.00 0.00 0.00 67 1014.8
20260502212055 21 304 8.0 12.9 0.00 0.00 0.00 66 1014.6
20260502211550 22 23 4.8 11.3 0.00 0.00 0.00 67 1014.7
20260502211048 22 274 9.7 14.5 0.00 0.00 0.00 66 1014.9
20260502210545 21 356 3.2 9.7 0.00 0.00 0.00 69 1015.0
20260502210042 21 283 3.2 12.9 0.00 0.00 0.00 70 1014.7
20260502205538 21 14 1.6 4.8 0.00 0.00 0.00 71 1014.8
20260502205036 21 207 11.3 17.7 0.00 0.00 0.00 70 1015.0
20260502204532 21 358 1.6 9.7 0.00 0.00 0.00 70 1015.1
20260502204030 20 258 8.0 17.7 0.00 0.00 0.00 71 1015.0
20260502203527 20 293 1.6 16.1 0.00 0.00 0.00 71 1014.9
20260502203024 20 273 4.8 14.5 0.00 0.00 0.00 71 1014.9
20260502202520 20 275 4.8 17.7 0.00 0.00 0.00 70 1015.2
20260502202019 19 277 3.2 6.4 0.00 0.00 0.00 72 1015.1
20260502201514 20 359 3.2 6.4 0.00 0.00 0.00 71 1015.3
20260502201011 20 288 8.0 11.3 0.00 0.00 0.00 70 1015.4
20260502200507 20 339 3.2 12.9 0.00 0.00 0.00 70 1015.4
20260502200005 20 291 9.7 12.9 0.00 0.00 0.00 70 1015.5
20260502195502 20 154 9.7 16.1 0.00 0.00 0.00 71 1015.5
20260502194957 20 105 1.6 12.9 0.00 0.00 0.00 73 1015.7